Pittsburgh, PA

5:52 PM EDT on August 29, 2016 (GMT -0400)
Pittsburgh International

Weather History for KPIT - February, 2013

Change the Weather History Date:

Saturday, February 9, 2013

  Actual Average Record
Temperature  
Mean Temperature 27 °F 30 °F  
Max Temperature 33 °F 38 °F 68 °F (1925)
Min Temperature 20 °F 22 °F -11 °F (1934)
Degree Days  
Heating Degree Days 38 35  
Month to date heating degree days 373 320  
Since 1 July heating degree days 3473 3629  
Cooling Degree Days 0 0  
Month to date cooling degree days 0 0  
Year to date cooling degree days 0 0  
Moisture  
Dew Point 16 °F    
Average Humidity 62    
Maximum Humidity 77    
Minimum Humidity 47    
Precipitation  
Precipitation T in 0.09 in 0.56 in (1881)
Month to date precipitation 0.31 0.78  
Year to date precipitation 2.75 3.48  
Snow  
Snow T in 0.30 in 3.40 in (1982)
Month to date snowfall 6.3 3.3  
Since 1 July snowfall 32.2 25.8  
Snow Depth 1.00 in    
Sea Level Pressure  
Sea Level Pressure 30.37 in    
Wind  
Wind Speed 8 mph (NW)    
Max Wind Speed 29 mph    
Max Gust Speed 38 mph    
Visibility 9 miles    
Events Snow    
T = Trace of Precipitation, MM = Missing Value Source: NWS Daily Summary

Daily Weather History Graph

Daily Weather History Graph

Search for Another Location

Airport or City:

Trip Planner

Search our weather history database for the weather conditions in past years. The results will help you decide how hot, cold, wet, or windy it might be!

Date:

Astronomy

Feb. 09, 2013 Rise Set
Actual Time 7:21 AM EST 5:49 PM EST
Civil Twilight 6:53 AM EST 6:17 PM EST
Nautical Twilight 6:21 AM EST 6:49 PM EST
Astronomical Twilight 5:49 AM EST 7:21 PM EST
Moon 6:32 AM EST (2/9) 5:30 PM EST (2/9)
Length of Visible Light 11h 24m
Length of Day
10h 27m
Waning Crescent, 0% of the Moon is Illuminated
Feb 9
Waning Crescent
Feb 10
New
Feb 17
First Quarter
Feb 25
Full
Mar 4
Last Quarter

Hourly Weather History & Observations

Time (EST) Temp. Windchill Dew Point Humidity Pressure Visibility Wind Dir Wind Speed Gust Speed Precip Events Conditions
12:51 AM 25.0 °F 9.5 °F 18.0 °F 75% 30.21 in 8.0 mi NNW 24.2 mph 27.6 mph 0.00 in Snow Light Snow
1:51 AM 24.1 °F 9.4 °F 17.1 °F 75% 30.24 in 9.0 mi NW 20.7 mph 29.9 mph 0.00 in Snow Light Snow
2:51 AM 23.0 °F 8.7 °F 15.1 °F 72% 30.27 in 9.0 mi NNW 18.4 mph 29.9 mph 0.00 in Snow Light Snow
3:51 AM 23.0 °F 9.2 °F 16.0 °F 74% 30.28 in 9.0 mi NNW 17.3 mph - 0.00 in Snow Light Snow
4:51 AM 23.0 °F 10.1 °F 16.0 °F 74% 30.31 in 9.0 mi NW 15.0 mph - 0.00 in Snow Light Snow
5:51 AM 23.0 °F 10.6 °F 16.0 °F 74% 30.34 in 9.0 mi NNW 13.8 mph - 0.00 in Snow Light Snow
6:51 AM 23.0 °F 11.7 °F 15.1 °F 72% 30.37 in 8.0 mi NW 11.5 mph - 0.00 in Snow Light Snow
7:51 AM 23.0 °F 11.1 °F 15.1 °F 72% 30.40 in 9.0 mi NNW 12.7 mph - 0.00 in Snow Light Snow
8:51 AM 23.0 °F 11.1 °F 15.1 °F 72% 30.42 in 8.0 mi NW 12.7 mph - 0.00 in Snow Light Snow
9:04 AM 23.0 °F 13.1 °F 17.6 °F 80% 30.34 in 1.8 mi North 9.2 mph - 0.00 in Snow Light Snow
9:07 AM 23.0 °F 13.1 °F 17.6 °F 80% 30.34 in 4.0 mi North 9.2 mph - 0.00 in Snow Light Snow
9:51 AM 24.1 °F 17.0 °F 16.0 °F 71% 30.43 in 10.0 mi NNW 5.8 mph - 0.00 in   Mostly Cloudy
10:51 AM 25.0 °F 15.5 °F 16.0 °F 69% 30.43 in 10.0 mi WNW 9.2 mph - N/A   Mostly Cloudy
11:51 AM 27.0 °F 20.5 °F 16.0 °F 63% 30.42 in 10.0 mi NW 5.8 mph - N/A   Scattered Clouds
12:51 PM 28.9 °F 20.4 °F 16.0 °F 58% 30.41 in 10.0 mi WNW 9.2 mph - N/A   Partly Cloudy
1:51 PM 30.0 °F 24.1 °F 16.0 °F 56% 30.40 in 10.0 mi West 5.8 mph - N/A   Scattered Clouds
2:51 PM 32.0 °F 24.8 °F 16.0 °F 52% 30.38 in 10.0 mi WNW 8.1 mph - N/A   Partly Cloudy
3:51 PM 33.1 °F 26.9 °F 15.1 °F 48% 30.39 in 10.0 mi NW 6.9 mph - N/A   Partly Cloudy
4:51 PM 33.1 °F 28.7 °F 16.0 °F 50% 30.39 in 10.0 mi NW 4.6 mph - N/A   Partly Cloudy
5:51 PM 30.9 °F - 14.0 °F 50% 30.39 in 10.0 mi Calm Calm - N/A   Partly Cloudy
6:51 PM 30.0 °F - 14.0 °F 51% 30.40 in 9.0 mi Calm Calm - N/A   Partly Cloudy
7:51 PM 26.6 °F - 15.8 °F 64% 30.33 in 10.0 mi Calm Calm - N/A   Partly Cloudy
8:51 PM 25.0 °F - 15.1 °F 66% 30.42 in 10.0 mi Calm Calm - N/A   Partly Cloudy
9:51 PM 24.1 °F - 16.0 °F 71% 30.43 in 10.0 mi Calm Calm - N/A   Clear
10:51 PM 21.0 °F - 15.1 °F 78% 30.42 in 10.0 mi Calm Calm - N/A   Clear
11:51 PM 19.9 °F - 14.0 °F 78% 30.39 in 10.0 mi Calm Calm - N/A   Clear